Voltar ao catálogo

BREEZE-KM DEB

AtivoPO
NORAD 41722·DEBRIS·🇷🇺 Russia

Lançado Mar 31, 2015 de Plesetsk Cosmodrome

Loading…

Próximas Passagens (próximas 24 horas)

TLE

AtualizadoSource: Space-Track

Época: Sep 13, 2026, 02:21 UTC

1 41722U 15020K   26256.09846466  .00000035  00000-0  11326-3 0  9992
2 41722  82.4923 199.1663 0180063   9.9403 350.5177 12.70541266502968

Acompanhe BREEZE-KM DEB em tempo real com AllMySat

Download on the App Store